Year,Month,Day,Hour,Minute,Value (Times are PST for temperature in C)
2021,12,28,00,00,-5.30
2021,12,28,00,01,-5.30
2021,12,28,00,02,-5.30
2021,12,28,00,03,-5.30
2021,12,28,00,04,-5.30
2021,12,28,00,05,-5.30
2021,12,28,00,06,-5.30
2021,12,28,00,07,-5.30
2021,12,28,00,08,-5.30
2021,12,28,00,09,-5.30
2021,12,28,00,10,-5.30
2021,12,28,00,11,-5.30
2021,12,28,00,12,-5.20
2021,12,28,00,13,-5.20
2021,12,28,00,14,-5.20
2021,12,28,00,15,-5.20
2021,12,28,00,16,-5.20
2021,12,28,00,17,-5.30
2021,12,28,00,18,-5.30
2021,12,28,00,19,-5.30
2021,12,28,00,20,-5.40
2021,12,28,00,21,-5.40
2021,12,28,00,22,-5.40
2021,12,28,00,23,-5.50
2021,12,28,00,24,-5.50
2021,12,28,00,25,-5.50
2021,12,28,00,26,-5.60
2021,12,28,00,27,-5.60
2021,12,28,00,28,-5.60
2021,12,28,00,29,-5.60
2021,12,28,00,30,-5.60
2021,12,28,00,31,-5.60
2021,12,28,00,32,-5.70
2021,12,28,00,33,-5.70
2021,12,28,00,34,-5.70
2021,12,28,00,35,-5.70
2021,12,28,00,36,-5.70
2021,12,28,00,37,-5.70
2021,12,28,00,38,-5.70
2021,12,28,00,39,-5.70
2021,12,28,00,40,-5.80
2021,12,28,00,41,-5.80
2021,12,28,00,42,-5.80
2021,12,28,00,43,-5.90
2021,12,28,00,44,-5.90
2021,12,28,00,45,-5.90
2021,12,28,00,46,-6.00
2021,12,28,00,47,-6.00
2021,12,28,00,48,-6.00
2021,12,28,00,49,-6.00
2021,12,28,00,50,-6.10
2021,12,28,00,51,-6.10
2021,12,28,00,52,-6.10
2021,12,28,00,53,-6.10
2021,12,28,00,54,-6.20
2021,12,28,00,55,-6.20
2021,12,28,00,56,-6.20
2021,12,28,00,57,-6.20
2021,12,28,00,58,-6.30
2021,12,28,00,59,-6.30
2021,12,28,01,00,-6.30
2021,12,28,01,01,-6.30
2021,12,28,01,02,-6.30
2021,12,28,01,03,-6.30
2021,12,28,01,04,-6.30
2021,12,28,01,05,-6.30
2021,12,28,01,06,-6.30
2021,12,28,01,07,-6.40
2021,12,28,01,08,-6.40
2021,12,28,01,09,-6.40
2021,12,28,01,10,-6.40
2021,12,28,01,11,-6.50
2021,12,28,01,12,-6.60
2021,12,28,01,13,-6.60
2021,12,28,01,14,-6.70
2021,12,28,01,15,-6.70
2021,12,28,01,16,-6.70
2021,12,28,01,17,-6.80
2021,12,28,01,18,-6.80
2021,12,28,01,19,-6.80
2021,12,28,01,20,-6.80
2021,12,28,01,21,-6.80
2021,12,28,01,22,-6.80
2021,12,28,01,23,-6.80
2021,12,28,01,24,-6.80
2021,12,28,01,25,-6.80
2021,12,28,01,26,-6.80
2021,12,28,01,27,-6.90
2021,12,28,01,28,-6.90
2021,12,28,01,29,-6.90
2021,12,28,01,30,-6.90
2021,12,28,01,31,-6.90
2021,12,28,01,32,-6.90
2021,12,28,01,33,-6.90
2021,12,28,01,34,-6.90
2021,12,28,01,35,-6.90
2021,12,28,01,36,-6.90
2021,12,28,01,37,-6.80
2021,12,28,01,38,-6.80
2021,12,28,01,39,-6.70
2021,12,28,01,40,-6.70
2021,12,28,01,41,-6.60
2021,12,28,01,42,-6.60
2021,12,28,01,43,-6.60
2021,12,28,01,44,-6.60
2021,12,28,01,45,-6.60
2021,12,28,01,46,-6.60
2021,12,28,01,47,-6.60
2021,12,28,01,48,-6.60
2021,12,28,01,49,-6.60
2021,12,28,01,50,-6.60
2021,12,28,01,51,-6.60
2021,12,28,01,52,-6.60
2021,12,28,01,53,-6.60
2021,12,28,01,54,-6.60
2021,12,28,01,55,-6.60
2021,12,28,01,56,-6.60
2021,12,28,01,57,-6.50
2021,12,28,01,58,-6.50
2021,12,28,01,59,-6.50
2021,12,28,02,00,-6.50
2021,12,28,02,01,-6.40
2021,12,28,02,02,-6.40
2021,12,28,02,03,-6.40
2021,12,28,02,04,-6.30
2021,12,28,02,05,-6.30
2021,12,28,02,06,-6.20
2021,12,28,02,07,-6.20
2021,12,28,02,08,-6.20
2021,12,28,02,09,-6.10
2021,12,28,02,10,-6.10
2021,12,28,02,11,-6.10
2021,12,28,02,12,-6.10
2021,12,28,02,13,-6.10
2021,12,28,02,14,-6.10
2021,12,28,02,15,-6.10
2021,12,28,02,16,-6.10
2021,12,28,02,17,-6.10
2021,12,28,02,18,-6.10
2021,12,28,02,19,-6.10
2021,12,28,02,20,-6.10
2021,12,28,02,21,-6.10
2021,12,28,02,22,-6.10
2021,12,28,02,23,-6.10
2021,12,28,02,24,-6.10
2021,12,28,02,25,-6.10
2021,12,28,02,26,-6.10
2021,12,28,02,27,-6.10
2021,12,28,02,28,-6.10
2021,12,28,02,29,-6.20
2021,12,28,02,30,-6.20
2021,12,28,02,31,-6.20
2021,12,28,02,32,-6.20
2021,12,28,02,33,-6.20
2021,12,28,02,34,-6.20
2021,12,28,02,35,-6.20
2021,12,28,02,36,-6.20
2021,12,28,02,37,-6.20
2021,12,28,02,38,-6.20
2021,12,28,02,39,-6.30
2021,12,28,02,40,-6.30
2021,12,28,02,41,-6.30
2021,12,28,02,42,-6.30
2021,12,28,02,43,-6.30
2021,12,28,02,44,-6.30
2021,12,28,02,45,-6.30
2021,12,28,02,46,-6.30
2021,12,28,02,47,-6.30
2021,12,28,02,48,-6.30
2021,12,28,02,49,-6.30
2021,12,28,02,50,-6.30
2021,12,28,02,51,-6.30
2021,12,28,02,52,-6.40
2021,12,28,02,53,-6.40
2021,12,28,02,54,-6.40
2021,12,28,02,55,-6.40
2021,12,28,02,56,-6.40
2021,12,28,02,57,-6.40
2021,12,28,02,58,-6.40
2021,12,28,02,59,-6.40
2021,12,28,03,00,-6.30
2021,12,28,03,01,-6.30
2021,12,28,03,02,-6.30
2021,12,28,03,03,-6.30
2021,12,28,03,04,-6.30
2021,12,28,03,05,-6.30
2021,12,28,03,06,-6.30
2021,12,28,03,07,-6.30
2021,12,28,03,08,-6.30
2021,12,28,03,09,-6.40
2021,12,28,03,10,-6.40
2021,12,28,03,11,-6.40
2021,12,28,03,12,-6.40
2021,12,28,03,13,-6.40
2021,12,28,03,14,-6.40
2021,12,28,03,15,-6.40
2021,12,28,03,16,-6.50
2021,12,28,03,17,-6.50
2021,12,28,03,18,-6.50
2021,12,28,03,19,-6.50
2021,12,28,03,20,-6.60
2021,12,28,03,21,-6.60
2021,12,28,03,22,-6.60
2021,12,28,03,23,-6.60
2021,12,28,03,24,-6.60
2021,12,28,03,25,-6.60
2021,12,28,03,26,-6.60
2021,12,28,03,27,-6.60
2021,12,28,03,28,-6.60
2021,12,28,03,29,-6.60
2021,12,28,03,30,-6.60
2021,12,28,03,31,-6.60
2021,12,28,03,32,-6.60
2021,12,28,03,33,-6.60
2021,12,28,03,34,-6.60
2021,12,28,03,35,-6.60
2021,12,28,03,36,-6.60
2021,12,28,03,37,-6.60
2021,12,28,03,38,-6.60
2021,12,28,03,39,-6.60
2021,12,28,03,40,-6.60
2021,12,28,03,41,-6.60
2021,12,28,03,42,-6.60
2021,12,28,03,43,-6.60
2021,12,28,03,44,-6.60
2021,12,28,03,45,-6.60
2021,12,28,03,46,-6.70
2021,12,28,03,47,-6.70
2021,12,28,03,48,-6.70
2021,12,28,03,49,-6.70
2021,12,28,03,50,-6.70
2021,12,28,03,51,-6.70
2021,12,28,03,52,-6.70
2021,12,28,03,53,-6.70
2021,12,28,03,54,-6.70
2021,12,28,03,55,-6.80
2021,12,28,03,56,-6.80
2021,12,28,03,57,-6.80
2021,12,28,03,58,-6.70
2021,12,28,03,59,-6.70
2021,12,28,04,00,-6.70
2021,12,28,04,01,-6.80
2021,12,28,04,02,-6.70
2021,12,28,04,03,-6.70
2021,12,28,04,04,-6.70
2021,12,28,04,05,-6.70
2021,12,28,04,06,-6.80
2021,12,28,04,07,-6.80
2021,12,28,04,08,-6.80
2021,12,28,04,09,-6.80
2021,12,28,04,10,-6.80
2021,12,28,04,11,-6.80
2021,12,28,04,12,-6.80
2021,12,28,04,13,-6.90
2021,12,28,04,14,-6.80
2021,12,28,04,15,-6.80
2021,12,28,04,16,-6.80
2021,12,28,04,17,-6.80
2021,12,28,04,18,-6.80
2021,12,28,04,19,-6.80
2021,12,28,04,20,-6.80
2021,12,28,04,21,-6.80
2021,12,28,04,22,-6.70
2021,12,28,04,23,-6.70
2021,12,28,04,24,-6.70
2021,12,28,04,25,-6.80
2021,12,28,04,26,-6.80
2021,12,28,04,27,-6.80
2021,12,28,04,28,-6.80
2021,12,28,04,29,-6.80
2021,12,28,04,30,-6.80
2021,12,28,04,31,-6.90
2021,12,28,04,32,-6.90
2021,12,28,04,33,-6.90
2021,12,28,04,34,-6.90
2021,12,28,04,35,-6.90
2021,12,28,04,36,-6.90
2021,12,28,04,37,-6.80
2021,12,28,04,38,-6.80
2021,12,28,04,39,-6.80
2021,12,28,04,40,-6.80
2021,12,28,04,41,-6.80
2021,12,28,04,42,-6.80
2021,12,28,04,43,-6.80
2021,12,28,04,44,-6.90
2021,12,28,04,45,-6.90
2021,12,28,04,46,-6.90
2021,12,28,04,47,-6.90
2021,12,28,04,48,-7.00
2021,12,28,04,49,-7.00
2021,12,28,04,50,-7.00
2021,12,28,04,51,-7.00
2021,12,28,04,52,-7.10
2021,12,28,04,53,-7.10
2021,12,28,04,54,-7.10
2021,12,28,04,55,-7.10
2021,12,28,04,56,-7.10
2021,12,28,04,57,-7.10
2021,12,28,04,58,-7.10
2021,12,28,04,59,-7.10
2021,12,28,05,00,-7.20
2021,12,28,05,01,-7.20
2021,12,28,05,02,-7.10
2021,12,28,05,03,-7.20
2021,12,28,05,04,-7.20
2021,12,28,05,05,-7.20
2021,12,28,05,06,-7.20
2021,12,28,05,07,-7.20
2021,12,28,05,08,-7.20
2021,12,28,05,09,-7.20
2021,12,28,05,10,-7.20
2021,12,28,05,11,-7.20
2021,12,28,05,12,-7.20
2021,12,28,05,13,-7.20
2021,12,28,05,14,-7.20
2021,12,28,05,15,-7.20
2021,12,28,05,16,-7.20
2021,12,28,05,17,-7.20
2021,12,28,05,18,-7.20
2021,12,28,05,19,-7.20
2021,12,28,05,20,-7.20
2021,12,28,05,21,-7.20
2021,12,28,05,22,-7.30
2021,12,28,05,23,-7.30
2021,12,28,05,24,-7.30
2021,12,28,05,25,-7.30
2021,12,28,05,26,-7.30
2021,12,28,05,27,-7.30
2021,12,28,05,28,-7.30
2021,12,28,05,29,-7.30
2021,12,28,05,30,-7.30
2021,12,28,05,31,-7.30
2021,12,28,05,32,-7.30
2021,12,28,05,33,-7.30
2021,12,28,05,34,-7.30
2021,12,28,05,35,-7.40
2021,12,28,05,36,-7.40
2021,12,28,05,37,-7.40
2021,12,28,05,38,-7.40
2021,12,28,05,39,-7.40
2021,12,28,05,40,-7.40
2021,12,28,05,41,-7.40
2021,12,28,05,42,-7.40
2021,12,28,05,43,-7.40
2021,12,28,05,44,-7.40
2021,12,28,05,45,-7.40
2021,12,28,05,46,-7.50
2021,12,28,05,47,-7.50
2021,12,28,05,48,-7.50
2021,12,28,05,49,-7.40
2021,12,28,05,50,-7.40
2021,12,28,05,51,-7.40
2021,12,28,05,52,-7.40
2021,12,28,05,53,-7.40
2021,12,28,05,54,-7.30
2021,12,28,05,55,-7.30
2021,12,28,05,56,-7.30
2021,12,28,05,57,-7.30
2021,12,28,05,58,-7.30
2021,12,28,05,59,-7.30
2021,12,28,06,00,-7.30
2021,12,28,06,01,-7.30
2021,12,28,06,02,-7.30
2021,12,28,06,03,-7.30
2021,12,28,06,04,-7.30
2021,12,28,06,05,-7.30
2021,12,28,06,06,-7.30
2021,12,28,06,07,-7.30
2021,12,28,06,08,-7.30
2021,12,28,06,09,-7.30
2021,12,28,06,10,-7.30
2021,12,28,06,11,-7.30
2021,12,28,06,12,-7.20
2021,12,28,06,13,-7.20
2021,12,28,06,14,-7.20
2021,12,28,06,15,-7.20
2021,12,28,06,16,-7.20
2021,12,28,06,17,-7.20
2021,12,28,06,18,-7.20
2021,12,28,06,19,-7.10
2021,12,28,06,20,-7.10
2021,12,28,06,21,-7.10
2021,12,28,06,22,-7.10
2021,12,28,06,23,-7.10
2021,12,28,06,24,-7.10
2021,12,28,06,25,-7.10
2021,12,28,06,26,-7.10
2021,12,28,06,27,-7.10
2021,12,28,06,28,-7.10
2021,12,28,06,29,-7.10
2021,12,28,06,30,-7.10
2021,12,28,06,31,-7.10
2021,12,28,06,32,-7.10
2021,12,28,06,33,-7.10
2021,12,28,06,34,-7.10
2021,12,28,06,35,-7.10
2021,12,28,06,36,-7.20
2021,12,28,06,37,-7.20
2021,12,28,06,38,-7.20
2021,12,28,06,39,-7.20
2021,12,28,06,40,-7.20
2021,12,28,06,41,-7.20
2021,12,28,06,42,-7.20
2021,12,28,06,43,-7.20
2021,12,28,06,44,-7.20
2021,12,28,06,45,-7.10
2021,12,28,06,46,-7.10
2021,12,28,06,47,-7.10
2021,12,28,06,48,-7.10
2021,12,28,06,49,-7.10
2021,12,28,06,50,-7.10
2021,12,28,06,51,-7.10
2021,12,28,06,52,-7.10
2021,12,28,06,53,-7.10
2021,12,28,06,54,-7.10
2021,12,28,06,55,-7.10
2021,12,28,06,56,-7.10
2021,12,28,06,57,-7.10
2021,12,28,06,58,-7.10
2021,12,28,06,59,-7.10
2021,12,28,07,00,-7.10
2021,12,28,07,01,-7.10
2021,12,28,07,02,-7.00
2021,12,28,07,03,-7.00
2021,12,28,07,04,-6.90
2021,12,28,07,05,-6.90
2021,12,28,07,06,-6.90
2021,12,28,07,07,-6.90
2021,12,28,07,08,-6.90
2021,12,28,07,09,-6.90
2021,12,28,07,10,-6.90
2021,12,28,07,11,-6.90
2021,12,28,07,12,-6.90
2021,12,28,07,13,-6.80
2021,12,28,07,14,-6.80
2021,12,28,07,15,-6.90
2021,12,28,07,16,-6.90
2021,12,28,07,17,-6.90
2021,12,28,07,18,-6.90
2021,12,28,07,19,-6.80
2021,12,28,07,20,-6.80
2021,12,28,07,21,-6.80
2021,12,28,07,22,-6.90
2021,12,28,07,23,-6.90
2021,12,28,07,24,-6.90
2021,12,28,07,25,-6.90
2021,12,28,07,26,-6.90
2021,12,28,07,27,-6.90
2021,12,28,07,28,-6.90
2021,12,28,07,29,-6.90
2021,12,28,07,30,-6.90
2021,12,28,07,31,-6.90
2021,12,28,07,32,-6.90
2021,12,28,07,33,-6.90
2021,12,28,07,34,-7.00
2021,12,28,07,35,-7.00
2021,12,28,07,36,-7.10
2021,12,28,07,37,-7.10
2021,12,28,07,38,-7.10
2021,12,28,07,39,-7.10
2021,12,28,07,40,-7.10
2021,12,28,07,41,-7.10
2021,12,28,07,42,-7.10
2021,12,28,07,43,-7.10
2021,12,28,07,44,-7.00
2021,12,28,07,45,-7.00
2021,12,28,07,46,-7.00
2021,12,28,07,47,-7.00
2021,12,28,07,48,-7.00
2021,12,28,07,49,-7.00
2021,12,28,07,50,-7.00
2021,12,28,07,51,-7.10
2021,12,28,07,52,-7.10
2021,12,28,07,53,-7.10
2021,12,28,07,54,-7.10
2021,12,28,07,55,-7.10
2021,12,28,07,56,-7.10
2021,12,28,07,57,-7.10
2021,12,28,07,58,-7.10
2021,12,28,07,59,-7.10
2021,12,28,08,00,-7.10
2021,12,28,08,01,-7.10
2021,12,28,08,02,-7.20
2021,12,28,08,03,-7.20
2021,12,28,08,04,-7.20
2021,12,28,08,05,-7.20
2021,12,28,08,06,-7.20
2021,12,28,08,07,-7.30
2021,12,28,08,08,-7.30
2021,12,28,08,09,-7.30
2021,12,28,08,10,-7.30
2021,12,28,08,11,-7.20
2021,12,28,08,12,-7.30
2021,12,28,08,13,-7.20
2021,12,28,08,14,-7.30
2021,12,28,08,15,-7.30
2021,12,28,08,16,-7.20
2021,12,28,08,17,-7.20
2021,12,28,08,18,-7.20
2021,12,28,08,19,-7.20
2021,12,28,08,20,-7.20
2021,12,28,08,21,-7.20
2021,12,28,08,22,-7.30
2021,12,28,08,23,-7.30
2021,12,28,08,24,-7.30
2021,12,28,08,25,-7.30
2021,12,28,08,26,-7.30
2021,12,28,08,27,-7.30
2021,12,28,08,28,-7.30
2021,12,28,08,29,-7.30
2021,12,28,08,30,-7.30
2021,12,28,08,31,-7.30
2021,12,28,08,32,-7.30
2021,12,28,08,33,-7.30
2021,12,28,08,34,-7.30
2021,12,28,08,35,-7.30
2021,12,28,08,36,-7.30
2021,12,28,08,37,-7.30
2021,12,28,08,38,-7.30
2021,12,28,08,39,-7.30
2021,12,28,08,40,-7.30
2021,12,28,08,41,-7.30
2021,12,28,08,42,-7.30
2021,12,28,08,43,-7.30
2021,12,28,08,44,-7.30
2021,12,28,08,45,-7.30
2021,12,28,08,46,-7.30
2021,12,28,08,47,-7.30
2021,12,28,08,48,-7.20
2021,12,28,08,49,-7.20
2021,12,28,08,50,-7.20
2021,12,28,08,51,-7.20
2021,12,28,08,52,-7.20
2021,12,28,08,53,-7.20
2021,12,28,08,54,-7.10
2021,12,28,08,55,-7.10
2021,12,28,08,56,-7.10
2021,12,28,08,57,-7.10
2021,12,28,08,58,-7.10
2021,12,28,08,59,-7.10
2021,12,28,09,00,-7.10
2021,12,28,09,01,-7.10
2021,12,28,09,02,-7.10
2021,12,28,09,03,-7.10
2021,12,28,09,04,-7.10
2021,12,28,09,05,-7.10
2021,12,28,09,06,-7.10
2021,12,28,09,07,-7.10
2021,12,28,09,08,-7.10
2021,12,28,09,09,-7.10
2021,12,28,09,10,-7.10
2021,12,28,09,11,-7.10
2021,12,28,09,12,-7.10
2021,12,28,09,13,-7.10
2021,12,28,09,14,-7.10
2021,12,28,09,15,-7.10
2021,12,28,09,16,-7.10
2021,12,28,09,17,-7.10
2021,12,28,09,18,-7.10
2021,12,28,09,19,-7.10
2021,12,28,09,20,-7.10
2021,12,28,09,21,-7.10
2021,12,28,09,22,-7.00
2021,12,28,09,23,-7.00
2021,12,28,09,24,-7.00
2021,12,28,09,25,-7.00
2021,12,28,09,26,-6.90
2021,12,28,09,27,-6.90
2021,12,28,09,28,-6.90
2021,12,28,09,29,-6.90
2021,12,28,09,30,-6.90
2021,12,28,09,31,-6.90
2021,12,28,09,32,-6.90
2021,12,28,09,33,-6.90
2021,12,28,09,34,-6.90
2021,12,28,09,35,-6.90
2021,12,28,09,36,-6.90
2021,12,28,09,37,-6.90
2021,12,28,09,38,-6.90
2021,12,28,09,39,-6.90
2021,12,28,09,40,-6.90
2021,12,28,09,41,-6.90
2021,12,28,09,42,-6.90
2021,12,28,09,43,-6.90
2021,12,28,09,44,-6.80
2021,12,28,09,45,-6.80
2021,12,28,09,46,-6.80
2021,12,28,09,47,-6.80
2021,12,28,09,48,-6.80
2021,12,28,09,49,-6.80
2021,12,28,09,50,-6.80
2021,12,28,09,51,-6.80
2021,12,28,09,52,-6.80
2021,12,28,09,53,-6.90
2021,12,28,09,54,-6.90
2021,12,28,09,55,-6.90
2021,12,28,09,56,-6.90
2021,12,28,09,57,-6.90
2021,12,28,09,58,-6.90
2021,12,28,09,59,-6.90
2021,12,28,10,00,-6.90
2021,12,28,10,01,-6.90
2021,12,28,10,02,-6.90
2021,12,28,10,03,-6.90
2021,12,28,10,04,-6.90
2021,12,28,10,05,-6.80
2021,12,28,10,06,-6.80
2021,12,28,10,07,-6.80
2021,12,28,10,08,-6.80
2021,12,28,10,09,-6.80
2021,12,28,10,10,-6.80
2021,12,28,10,11,-6.80
2021,12,28,10,12,-6.80
2021,12,28,10,13,-6.80
2021,12,28,10,14,-6.80
2021,12,28,10,15,-6.80
2021,12,28,10,16,-6.80
2021,12,28,10,17,-6.80
2021,12,28,10,18,-6.80
2021,12,28,10,19,-6.80
2021,12,28,10,20,-6.80
2021,12,28,10,21,-6.80
2021,12,28,10,22,-6.80
2021,12,28,10,23,-6.80
2021,12,28,10,24,-6.80
2021,12,28,10,25,-6.80
2021,12,28,10,26,-6.80
2021,12,28,10,27,-6.80
2021,12,28,10,28,-6.80
2021,12,28,10,29,-6.80
2021,12,28,10,30,-6.80
2021,12,28,10,31,-6.70
2021,12,28,10,32,-6.70
2021,12,28,10,33,-6.70
2021,12,28,10,34,-6.60
2021,12,28,10,35,-6.60
2021,12,28,10,36,-6.60
2021,12,28,10,37,-6.60
2021,12,28,10,38,-6.60
2021,12,28,10,39,-6.60
2021,12,28,10,40,-6.60
2021,12,28,10,41,-6.60
2021,12,28,10,42,-6.60
2021,12,28,10,43,-6.50
2021,12,28,10,44,-6.50
2021,12,28,10,45,-6.40
2021,12,28,10,46,-6.40
2021,12,28,10,47,-6.40
2021,12,28,10,48,-6.40
2021,12,28,10,49,-6.40
2021,12,28,10,50,-6.40
2021,12,28,10,51,-6.40
2021,12,28,10,52,-6.40
2021,12,28,10,53,-6.40
2021,12,28,10,54,-6.40
2021,12,28,10,55,-6.40
2021,12,28,10,56,-6.40
2021,12,28,10,57,-6.40
2021,12,28,10,58,-6.40
2021,12,28,10,59,-6.40
2021,12,28,11,00,-6.40
2021,12,28,11,01,-6.40
2021,12,28,11,02,-6.40
2021,12,28,11,03,-6.40
2021,12,28,11,04,-6.40
2021,12,28,11,05,-6.40
2021,12,28,11,06,-6.30
2021,12,28,11,07,-6.30
2021,12,28,11,08,-6.30
2021,12,28,11,09,-6.30
2021,12,28,11,10,-6.30
2021,12,28,11,11,-6.20
2021,12,28,11,12,-6.20
2021,12,28,11,13,-6.20
2021,12,28,11,14,-6.20
2021,12,28,11,15,-6.10
2021,12,28,11,16,-6.10
2021,12,28,11,17,-6.10
2021,12,28,11,18,-6.10
2021,12,28,11,19,-6.00
2021,12,28,11,20,-6.00
2021,12,28,11,21,-6.00
2021,12,28,11,22,-6.00
2021,12,28,11,23,-5.90
2021,12,28,11,24,-5.90
2021,12,28,11,25,-5.90
2021,12,28,11,26,-5.90
2021,12,28,11,27,-5.90
2021,12,28,11,28,-5.90
2021,12,28,11,29,-5.90
2021,12,28,11,30,-5.90
2021,12,28,11,31,-5.80
2021,12,28,11,32,-5.80
2021,12,28,11,33,-5.80
2021,12,28,11,34,-5.80
2021,12,28,11,35,-5.80
2021,12,28,11,36,-5.90
2021,12,28,11,37,-5.90
2021,12,28,11,38,-5.90
2021,12,28,11,39,-5.90
2021,12,28,11,40,-5.90
2021,12,28,11,41,-5.90
2021,12,28,11,42,-5.80
2021,12,28,11,43,-5.80
2021,12,28,11,44,-5.80
2021,12,28,11,45,-5.80
2021,12,28,11,46,-5.80
2021,12,28,11,47,-5.80
2021,12,28,11,48,-5.80
2021,12,28,11,49,-5.80
2021,12,28,11,50,-5.80
2021,12,28,11,51,-5.80
2021,12,28,11,52,-5.80
2021,12,28,11,53,-5.80
2021,12,28,11,54,-5.70
2021,12,28,11,55,-5.70
2021,12,28,11,56,-5.70
2021,12,28,11,57,-5.70
2021,12,28,11,58,-5.70
2021,12,28,11,59,-5.70
2021,12,28,12,00,-5.70
2021,12,28,12,01,-5.70
2021,12,28,12,02,-5.70
2021,12,28,12,03,-5.70
2021,12,28,12,04,-5.60
2021,12,28,12,05,-5.60
2021,12,28,12,06,-5.60
2021,12,28,12,07,-5.60
2021,12,28,12,08,-5.60
2021,12,28,12,09,-5.60
2021,12,28,12,10,-5.60
2021,12,28,12,11,-5.60
2021,12,28,12,12,-5.60
2021,12,28,12,13,-5.60
2021,12,28,12,14,-5.60
2021,12,28,12,15,-5.60
2021,12,28,12,16,-5.60
2021,12,28,12,17,-5.60
2021,12,28,12,18,-5.60
2021,12,28,12,19,-5.50
2021,12,28,12,20,-5.50
2021,12,28,12,21,-5.50
2021,12,28,12,22,-5.50
2021,12,28,12,23,-5.40
2021,12,28,12,24,-5.40
2021,12,28,12,25,-5.40
2021,12,28,12,26,-5.40
2021,12,28,12,27,-5.40
2021,12,28,12,28,-5.40
2021,12,28,12,29,-5.40
2021,12,28,12,30,-5.40
2021,12,28,12,31,-5.40
2021,12,28,12,32,-5.30
2021,12,28,12,33,-5.30
2021,12,28,12,34,-5.30
2021,12,28,12,35,-5.30
2021,12,28,12,36,-5.30
2021,12,28,12,37,-5.30
2021,12,28,12,38,-5.30
2021,12,28,12,39,-5.20
2021,12,28,12,40,-5.20
2021,12,28,12,41,-5.20
2021,12,28,12,42,-5.20
2021,12,28,12,43,-5.20
2021,12,28,12,44,-5.10
2021,12,28,12,45,-5.10
2021,12,28,12,46,-5.10
2021,12,28,12,47,-5.10
2021,12,28,12,48,-5.10
2021,12,28,12,49,-5.10
2021,12,28,12,50,-5.00
2021,12,28,12,51,-5.00
2021,12,28,12,52,-5.00
2021,12,28,12,53,-5.00
2021,12,28,12,54,-5.00
2021,12,28,12,55,-4.90
2021,12,28,12,56,-4.90
2021,12,28,12,57,-4.90
2021,12,28,12,58,-4.90
2021,12,28,12,59,-4.90
2021,12,28,13,00,-4.90
2021,12,28,13,01,-4.90
2021,12,28,13,02,-4.90
2021,12,28,13,03,-4.90
2021,12,28,13,04,-4.90
2021,12,28,13,05,-4.90
2021,12,28,13,06,-4.80
2021,12,28,13,07,-4.80
2021,12,28,13,08,-4.80
2021,12,28,13,09,-4.80
2021,12,28,13,10,-4.80
2021,12,28,13,11,-4.80
2021,12,28,13,12,-4.80
2021,12,28,13,13,-4.80
2021,12,28,13,14,-4.90
2021,12,28,13,15,-4.90
2021,12,28,13,16,-4.90
2021,12,28,13,17,-4.80
2021,12,28,13,18,-4.80
2021,12,28,13,19,-4.80
2021,12,28,13,20,-4.80
2021,12,28,13,21,-4.80
2021,12,28,13,22,-4.80
2021,12,28,13,23,-4.70
2021,12,28,13,24,-4.70
2021,12,28,13,25,-4.70
2021,12,28,13,26,-4.70
2021,12,28,13,27,-4.70
2021,12,28,13,28,-4.70
2021,12,28,13,29,-4.70
2021,12,28,13,30,-4.70
2021,12,28,13,31,-4.70
2021,12,28,13,32,-4.80
2021,12,28,13,33,-4.80
2021,12,28,13,34,-4.80
2021,12,28,13,35,-4.70
2021,12,28,13,36,-4.70
2021,12,28,13,37,-4.70
2021,12,28,13,38,-4.70
2021,12,28,13,39,-4.70
2021,12,28,13,40,-4.70
2021,12,28,13,41,-4.70
2021,12,28,13,42,-4.60
2021,12,28,13,43,-4.60
2021,12,28,13,44,-4.60
2021,12,28,13,45,-4.50
2021,12,28,13,46,-4.50
2021,12,28,13,47,-4.50
2021,12,28,13,48,-4.50
2021,12,28,13,49,-4.50
2021,12,28,13,50,-4.50
2021,12,28,13,51,-4.50
2021,12,28,13,52,-4.50
2021,12,28,13,53,-4.50
2021,12,28,13,54,-4.60
2021,12,28,13,55,-4.60
2021,12,28,13,56,-4.60
2021,12,28,13,57,-4.60
2021,12,28,13,58,-4.60
2021,12,28,13,59,-4.50
2021,12,28,14,00,-4.50
2021,12,28,14,01,-4.60
2021,12,28,14,02,-4.60
2021,12,28,14,03,-4.60
2021,12,28,14,04,-4.50
2021,12,28,14,05,-4.50
2021,12,28,14,06,-4.40
2021,12,28,14,07,-4.40
2021,12,28,14,08,-4.40
2021,12,28,14,09,-4.40
2021,12,28,14,10,-4.40
2021,12,28,14,11,-4.40
2021,12,28,14,12,-4.40
2021,12,28,14,13,-4.40
2021,12,28,14,14,-4.40
2021,12,28,14,15,-4.40
2021,12,28,14,16,-4.40
2021,12,28,14,17,-4.30
2021,12,28,14,18,-4.30
2021,12,28,14,19,-4.30
2021,12,28,14,20,-4.30
2021,12,28,14,21,-4.30
2021,12,28,14,22,-4.30
2021,12,28,14,23,-4.30
2021,12,28,14,24,-4.30
2021,12,28,14,25,-4.30
2021,12,28,14,26,-4.30
2021,12,28,14,27,-4.30
2021,12,28,14,28,-4.30
2021,12,28,14,29,-4.30
2021,12,28,14,30,-4.30
2021,12,28,14,31,-4.30
2021,12,28,14,32,-4.30
2021,12,28,14,33,-4.30
2021,12,28,14,34,-4.30
2021,12,28,14,35,-4.30
2021,12,28,14,36,-4.30
2021,12,28,14,37,-4.30
2021,12,28,14,38,-4.30
2021,12,28,14,39,-4.30
2021,12,28,14,40,-4.30
2021,12,28,14,41,-4.20
2021,12,28,14,42,-4.20
2021,12,28,14,43,-4.20
2021,12,28,14,44,-4.20
2021,12,28,14,45,-4.20
2021,12,28,14,46,-4.20
2021,12,28,14,47,-4.30
2021,12,28,14,48,-4.30
2021,12,28,14,49,-4.30
2021,12,28,14,50,-4.30
2021,12,28,14,51,-4.30
2021,12,28,14,52,-4.30
2021,12,28,14,53,-4.30
2021,12,28,14,54,-4.30
2021,12,28,14,55,-4.30
2021,12,28,14,56,-4.30
2021,12,28,14,57,-4.30
2021,12,28,14,58,-4.30
2021,12,28,14,59,-4.30
2021,12,28,15,00,-4.30
2021,12,28,15,01,-4.30
2021,12,28,15,02,-4.30
2021,12,28,15,03,-4.30
2021,12,28,15,04,-4.30
2021,12,28,15,05,-4.30
2021,12,28,15,06,-4.30
2021,12,28,15,07,-4.30
2021,12,28,15,08,-4.30
2021,12,28,15,09,-4.30
2021,12,28,15,10,-4.30
2021,12,28,15,11,-4.30
2021,12,28,15,12,-4.30
2021,12,28,15,13,-4.30
2021,12,28,15,14,-4.30
2021,12,28,15,15,-4.30
2021,12,28,15,16,-4.30
2021,12,28,15,17,-4.30
2021,12,28,15,18,-4.40
2021,12,28,15,19,-4.40
2021,12,28,15,20,-4.40
2021,12,28,15,21,-4.40
2021,12,28,15,22,-4.40
2021,12,28,15,23,-4.30
2021,12,28,15,24,-4.30
2021,12,28,15,25,-4.30
2021,12,28,15,26,-4.30
2021,12,28,15,27,-4.30
2021,12,28,15,28,-4.30
2021,12,28,15,29,-4.30
2021,12,28,15,30,-4.30
2021,12,28,15,31,-4.30
2021,12,28,15,32,-4.30
2021,12,28,15,33,-4.30
2021,12,28,15,34,-4.30
2021,12,28,15,35,-4.30
2021,12,28,15,36,-4.30
2021,12,28,15,37,-4.30
2021,12,28,15,38,-4.30
2021,12,28,15,39,-4.30
2021,12,28,15,40,-4.30
2021,12,28,15,41,-4.30
2021,12,28,15,42,-4.30
2021,12,28,15,43,-4.30
2021,12,28,15,44,-4.30
2021,12,28,15,45,-4.30
2021,12,28,15,46,-4.30
2021,12,28,15,47,-4.30
2021,12,28,15,48,-4.30
2021,12,28,15,49,-4.30
2021,12,28,15,50,-4.30
2021,12,28,15,51,-4.30
2021,12,28,15,52,-4.30
2021,12,28,15,53,-4.30
2021,12,28,15,54,-4.30
2021,12,28,15,55,-4.30
2021,12,28,15,56,-4.30
2021,12,28,15,57,-4.30
2021,12,28,15,58,-4.30
2021,12,28,15,59,-4.30
2021,12,28,16,00,-4.20
2021,12,28,16,01,-4.20
2021,12,28,16,02,-4.20
2021,12,28,16,03,-4.20
2021,12,28,16,04,-4.20
2021,12,28,16,05,-4.20
2021,12,28,16,06,-4.20
2021,12,28,16,07,-4.20
2021,12,28,16,08,-4.20
2021,12,28,16,09,-4.20
2021,12,28,16,10,-4.20
2021,12,28,16,11,-4.20
2021,12,28,16,12,-4.20
2021,12,28,16,13,-4.20
2021,12,28,16,14,-4.20
2021,12,28,16,15,-4.20
2021,12,28,16,16,-4.20
2021,12,28,16,17,-4.20
2021,12,28,16,18,-4.20
2021,12,28,16,19,-4.20
2021,12,28,16,20,-4.20
2021,12,28,16,21,-4.20
2021,12,28,16,22,-4.20
2021,12,28,16,23,-4.20
2021,12,28,16,24,-4.20
2021,12,28,16,25,-4.10
2021,12,28,16,26,-4.10
2021,12,28,16,27,-4.10
2021,12,28,16,28,-4.10
2021,12,28,16,29,-4.10
2021,12,28,16,30,-4.00
2021,12,28,16,31,-4.00
2021,12,28,16,32,-4.00
2021,12,28,16,33,-4.00
2021,12,28,16,34,-4.00
2021,12,28,16,35,-3.90
2021,12,28,16,36,-3.90
2021,12,28,16,37,-3.90
2021,12,28,16,38,-3.90
2021,12,28,16,39,-3.90
2021,12,28,16,40,-3.90
2021,12,28,16,41,-3.90
2021,12,28,16,42,-4.00
2021,12,28,16,43,-4.00
2021,12,28,16,44,-4.00
2021,12,28,16,45,-4.00
2021,12,28,16,46,-3.90
2021,12,28,16,47,-3.90
2021,12,28,16,48,-3.90
2021,12,28,16,49,-3.90
2021,12,28,16,50,-3.90
2021,12,28,16,51,-3.90
2021,12,28,16,52,-3.90
2021,12,28,16,53,-3.90
2021,12,28,16,54,-3.90
2021,12,28,16,55,-3.90
2021,12,28,16,56,-3.90
2021,12,28,16,57,-3.80
2021,12,28,16,58,-3.80
2021,12,28,16,59,-3.80
2021,12,28,17,00,-3.80
2021,12,28,17,01,-3.80
2021,12,28,17,02,-3.80
2021,12,28,17,03,-3.80
2021,12,28,17,04,-3.80
2021,12,28,17,05,-3.80
2021,12,28,17,06,-3.80
2021,12,28,17,07,-3.80
2021,12,28,17,08,-3.80
2021,12,28,17,09,-3.80
2021,12,28,17,10,-3.80
2021,12,28,17,11,-3.80
2021,12,28,17,12,-3.80
2021,12,28,17,13,-3.80
2021,12,28,17,14,-3.80
2021,12,28,17,15,-3.80
2021,12,28,17,16,-3.80
2021,12,28,17,17,-3.80
2021,12,28,17,18,-3.80
2021,12,28,17,19,-3.80